Fort Hood, TX

11:17 AM CST on December 11, 2019 (GMT -0600)
Killeen-Fort Hood Regional

Weather History for KGRK - September, 2019

Change the Weather History Date:

Friday, September 20, 2019

  Actual Average Record
Temperature  
Mean Temperature 85 °F -  
Max Temperature 95 °F 85 °F 98 °F (1999)
Min Temperature 77 °F 65 °F 59 °F (2011)
Cooling Degree Days 20    
Growing Degree Days 35 (Base 50)    
Moisture  
Dew Point 70 °F    
Average Humidity 67    
Maximum Humidity 90    
Minimum Humidity 37    
Precipitation  
Precipitation 0.00 in - - ()
Sea Level Pressure  
Sea Level Pressure 29.91 in    
Wind  
Wind Speed 13 mph (SE)    
Max Wind Speed 23 mph    
Max Gust Speed 29 mph    
Visibility 10 miles    
Events Rain    
Averages and records for this station are not official NWS values.
T = Trace of Precipitation, MM = Missing Value Source: NWS Daily Summary

Daily Weather History Graph

Daily Weather History Graph

Search for Another Location

Airport or City:

Astronomy

Sep. 20, 2019 Rise Set
Actual Time 7:18 AM CDT 7:30 PM CDT
Civil Twilight 6:54 AM CDT 7:54 PM CDT
Nautical Twilight 6:25 AM CDT 8:23 PM CDT
Astronomical Twilight 5:57 AM CDT 8:51 PM CDT
Moon 11:44 PM CDT (9/20) 1:02 PM CDT (9/20)
Length of Visible Light 13h 00m
Length of Day
12h 12m
Waning Gibbous, 65% of the Moon is Illuminated
Sep 20
Waning Gibbous
Sep 21
Last Quarter
Sep 28
New
Oct 5
First Quarter
Oct 13
Full

Hourly Weather History & Observations

Time (CDT) Temp. Heat Index Dew Point Humidity Pressure Visibility Wind Dir Wind Speed Gust Speed Precip Events Conditions
12:58 AM 77.2 °F - 72.7 °F 86% 29.86 in 10.0 mi SE 9.2 mph - N/A   Overcast
1:58 AM 77.7 °F - 73.6 °F 87% 29.87 in 10.0 mi SE 9.2 mph - N/A   Overcast
2:58 AM 78.8 °F - 73.9 °F 85% 29.86 in 10.0 mi SSE 10.4 mph - N/A   Overcast
3:58 AM 78.8 °F - 74.3 °F 86% 29.86 in 10.0 mi SSE 12.7 mph - N/A   Overcast
4:42 AM 78.8 °F - 73.4 °F 83% 29.86 in 10.0 mi SE 11.5 mph - N/A Rain Light Rain
4:52 AM 78.8 °F - 73.4 °F 83% 29.87 in 10.0 mi SE 9.2 mph - N/A   Overcast
4:58 AM 78.1 °F - 74.3 °F 88% 29.88 in 10.0 mi SE 9.2 mph - 0.00 in   Overcast
5:58 AM 77.7 °F - 74.3 °F 89% 29.89 in 10.0 mi SE 10.4 mph - N/A   Overcast
6:13 AM 77.0 °F - 73.4 °F 89% 29.90 in 10.0 mi SE 11.5 mph - N/A   Overcast
6:58 AM 77.5 °F - 74.1 °F 89% 29.91 in 10.0 mi SE 10.4 mph - N/A   Overcast
7:18 AM 77.0 °F - 73.4 °F 89% 29.91 in 9.0 mi SSE 12.7 mph - N/A   Overcast
7:58 AM 77.4 °F - 74.3 °F 90% 29.92 in 10.0 mi SE 11.5 mph - N/A   Mostly Cloudy
8:58 AM 79.9 °F - 74.3 °F 83% 29.93 in 10.0 mi SSE 13.8 mph - N/A   Overcast
9:33 AM 80.6 °F 85.4 °F 73.4 °F 79% 29.94 in 10.0 mi SSE 16.1 mph - N/A   Overcast
9:58 AM 80.4 °F 84.7 °F 72.7 °F 77% 29.95 in 10.0 mi South 13.8 mph - N/A   Mostly Cloudy
10:03 AM 82.4 °F 88.2 °F 73.4 °F 74% 29.94 in 10.0 mi SSE 17.3 mph - N/A   Scattered Clouds
10:58 AM 86.2 °F 90.0 °F 68.9 °F 56% 29.95 in 10.0 mi SSE 20.7 mph 28.8 mph N/A   Partly Cloudy
11:58 AM 88.7 °F 90.8 °F 65.7 °F 46% 29.95 in 10.0 mi SSE 12.7 mph 27.6 mph N/A   Partly Cloudy
12:58 PM 90.7 °F 93.2 °F 65.8 °F 44% 29.93 in 10.0 mi SSE 12.7 mph 20.7 mph N/A   Mostly Cloudy
1:31 PM 91.4 °F 93.2 °F 64.4 °F 41% 29.91 in 10.0 mi SE 15.0 mph 23.0 mph N/A   Scattered Clouds
1:45 PM 93.2 °F 94.9 °F 64.4 °F 38% 29.91 in 10.0 mi South 16.1 mph 26.5 mph N/A   Partly Cloudy
1:52 PM 91.4 °F 93.2 °F 64.4 °F 41% 29.90 in 10.0 mi SSE 17.3 mph 21.9 mph N/A   Scattered Clouds
1:58 PM 93.0 °F 94.6 °F 64.2 °F 38% 29.89 in 10.0 mi SSE 15.0 mph 26.5 mph N/A   Scattered Clouds
2:41 PM 93.2 °F 94.9 °F 64.4 °F 38% 29.88 in 10.0 mi South 18.4 mph 26.5 mph N/A   Partly Cloudy
2:58 PM 91.8 °F 93.4 °F 64.0 °F 40% 29.88 in 10.0 mi SSE 16.1 mph - N/A   Mostly Cloudy
3:58 PM 92.8 °F 93.9 °F 63.3 °F 37% 29.86 in 10.0 mi SE 13.8 mph 24.2 mph N/A   Mostly Cloudy
4:58 PM 92.3 °F 93.8 °F 64.0 °F 39% 29.86 in 10.0 mi SE 19.6 mph - N/A   Mostly Cloudy
5:58 PM 90.1 °F 94.4 °F 68.7 °F 49% 29.87 in 10.0 mi ESE 21.9 mph 26.5 mph N/A   Clear
6:58 PM 87.6 °F 91.9 °F 68.9 °F 54% 29.89 in 10.0 mi SE 19.6 mph 26.5 mph N/A   Clear
7:58 PM 84.4 °F 88.5 °F 69.6 °F 61% 29.90 in 10.0 mi SE 23.0 mph - N/A   Clear
8:58 PM 82.6 °F 86.1 °F 69.3 °F 64% 29.94 in 10.0 mi SE 19.6 mph 25.3 mph N/A   Clear
9:58 PM 81.7 °F 86.0 °F 71.4 °F 71% 29.96 in 10.0 mi ESE 19.6 mph - N/A   Scattered Clouds
10:03 PM 82.4 °F 87.2 °F 71.6 °F 70% 29.97 in 10.0 mi ESE 20.7 mph 27.6 mph N/A   Mostly Cloudy
10:08 PM 80.6 °F 84.6 °F 71.6 °F 74% 29.97 in 10.0 mi SE 19.6 mph 27.6 mph N/A   Mostly Cloudy
10:13 PM 80.6 °F 84.6 °F 71.6 °F 74% 29.98 in 10.0 mi SE 19.6 mph 27.6 mph N/A   Scattered Clouds
10:58 PM 79.7 °F - 71.1 °F 75% 29.99 in 10.0 mi SE 16.1 mph - N/A   Clear
11:48 PM 78.8 °F - 69.8 °F 74% 30.00 in 10.0 mi SE 18.4 mph - N/A   Mostly Cloudy
11:58 PM 79.2 °F - 71.1 °F 76% 30.00 in 10.0 mi SE 16.1 mph 25.3 mph N/A   Mostly Cloudy